Location: Bergen
(60.3910°N, 5.3250°E)
Time: 23:31:29
(UTC+02:00)

ISS - Visible Passes

Search period start: 23 September 2018 00:00
Search period end: 03 October 2018 00:00
Orbit: 403 x 408 km, 51.6° (Epoch: 23 September)

Date Brightness Start Highest point End Pass type
(mag) Time Alt. Az. Time Alt. Az. Time Alt. Az.
25 Sep -1.4 21:05:24 10° S 21:05:59 11° SSE 21:05:59 11° SSE visible
26 Sep -1.4 21:48:06 10° SSW 21:48:56 14° SSW 21:48:56 14° SSW visible
27 Sep -1.8 20:56:43 10° SSW 20:58:37 15° SSE 20:59:06 14° SSE visible
28 Sep -1.5 20:05:36 10° S 20:06:57 12° SSE 20:08:19 10° SE visible
28 Sep -1.8 21:40:14 10° SW 21:41:52 17° SSW 21:41:52 17° SSW visible
29 Sep -1.9 20:48:36 10° SW 20:50:52 17° S 20:51:54 15° SSE visible
29 Sep -1.0 22:24:22 10° SW 22:24:34 11° SW 22:24:34 11° SW visible
30 Sep -1.7 19:57:07 10° SSW 19:59:09 15° SSE 20:01:11 10° SE visible
30 Sep -1.8 21:32:30 10° SW 21:34:34 18° SSW 21:34:34 18° SSW visible
01 Oct -1.9 20:40:43 10° SW 20:43:05 18° S 20:44:32 14° SSE visible
01 Oct -0.9 22:17:00 10° SW 22:17:12 11° SW 22:17:12 11° SW visible
02 Oct -1.7 19:49:01 10° SW 19:51:20 18° S 19:53:38 10° SE visible
02 Oct -1.7 21:24:54 10° SW 21:27:01 16° SSW 21:27:09 16° S visible
